Location: Bacharowice
(49.9333°N, 19.5833°E)
Time: 03:46:24
(UTC+00:00)

Cosmos 2181 Rocket - Pass Details

Date: 11 May 2021
Orbit: 952 x 1014 km, 82.9° (Epoch: 22 June)

Event Time Altitude Azimuth Distance (km) Brightness Sun altitude
Exits shadow 21:44:33 37° 185° (S) 1,447 4.4 -20.9°
Maximum altitude 21:47:11 88° 98° (E) 966 3.9 -21.0°
Drops below altitude 10° 21:53:21 10° 10° (N) 2,693 7.3 -21.2°
Sets 21:55:51 0° 10° (N) 3,642 8.2 -21.3°
